Zurück zum Katalog

SL-16 DEB

AktivLEO
NORAD 22816·DEBRIS·🇷🇺 Russia

Gestartet Dec 25, 1992 von Baikonur Cosmodrome

Loading…

Nächste Überflüge (nächste 24 Stunden)

TLE

AktuellSource: Space-Track

Epoche: Sep 13, 2026, 10:46 UTC

1 22816U 92093JC  26256.44896324  .00027012  00000-0  27664-2 0  9992
2 22816  71.4373 260.1989 0030410 175.5312 184.6131 14.90055792722842

Verfolge SL-16 DEB in Echtzeit mit AllMySat

Download on the App Store